sat.trackr.live / text

‹ back to catalog

STARLINK-1042

NORAD 44747 · 2019-074AL

PAYLOAD ACTIVE UNKNOWN

§ Identity

Operator
Country
US
Launch date
2019-11-11
Launch site
AFETR
Launch vehicle
Mass (kg)
RCS (m²)

Purposes: comms

External: N2YO · Heavens-Above · Gunter

§ Orbital elements

Epoch: 2026-05-25T02:28:15.291264Z

Period
92.70 min
Inclination
53.0418°
Eccentricity
0.0003576
Mean motion
15.53365704 rev/d
Perigee alt
404.5 km
Apogee alt
409.3 km
Semi-major
6,785.0 km
B*
3.6140e-4
RAAN
87.0886°
Arg perigee
62.0383°
Mean anomaly
298.0988°
Rev number
36,193

§ Raw data

STARLINK-10421 44747U 19074AL  26145.10295476  .00022836  00000+0  36140-3 0  99962 44747  53.0418  87.0886 0003576  62.0383 298.0988 15.53365704361934

JSON: /api/v1/satellites/44747 · /tle

For live sub-satellite position, see the globe view (requires WebGL).

§ Visibility from observer

Set your observer location to see the next 7 days of passes ≥ 10°. The values pass through the URL so the page stays shareable.

No JS? Fill the form by hand. The geolocation button needs JavaScript.